Weather in Makhalino

Russia / Penza Oblast     53°05′07″N   46°13′16″E
temp.,
°C
wind,
m/s
gust,
m/s
humid.,
%
clouds,
%
prec.,
mm/h
press.,
hPa
HPBL,
m
1 march, mon
mon100:00−19nnw239774 0.0 101924
03:00−19nw239837 0.0 102123
06:00−20nw23991 0.0 102321
09:00−15nw34951 0.0 1024188
12:00−10wnw348777 0.0 1024427
15:00−8wnw469089 0.0 1024477
18:00−13w349691 0.0 102369
21:00−14w479882 0.0 1023110
2 march, tue
tue200:00−11wsw5119699 0.0 1020277
03:00−7wsw7139499 0.1 1017519
06:00−5wsw71595100 0.7 1013576
09:00−2wsw81496100 1.7 1011685
12:00−1wsw81494100 0.3 1007790
15:000w81499100 1.6 1005828
18:000wnw61197100 1.5 1004640
21:00−4wnw479697 1.6 1005101
3 march, wed
wed300:00−5wnw379792 0.2 1005163
03:00−7wnw369794 0.4 1006114
06:00−9wnw359784 0.0 100691
09:00−6wnw479589 0.1 1007299
12:00−3nw5789100 0.1 1007831
15:00−4nw6985100 0.4 10091014
18:00−7nw51192100 0.1 1010438
21:00−8wnw41193100 0.2 1013394
4 march, thu
thu400:00−11w489771 0.0 1012145
03:00−9w5119684 0.1 1012279
06:00−7wsw5129599 0.2 1011421
09:00−4w71191100 0.3 1010804
12:00−2wsw91390100 0.1 1008985
15:00−1wsw91589100 0.3 1006834
18:00−1wsw91689100 0.0 1003961
21:00−1wsw91885100 0.0 10021017
5 march, fri
fri500:00−1wsw9178590 0.0 1001831
03:00−1wsw9178992 0.1 1001834
06:00−1wnw61196100 0.8 1004681
09:00−3nw369098 0.9 1007421
12:00−2nw238169 0.0 1009634
15:00−2wnw237983 0.0 1011664
18:00−6nw228686 0.0 101321
21:00−10nne228886 0.0 101521